May 27, 2022

Time Code Weather Temp. Visibility Ceiling Wind METAR/SPECI
7:30 pm
V
77 °F 6¼ mi+ - 290° 290° 11 kt METAR LFBO 271730Z AUTO 29011KT CAVOK 25/12 Q1021 NOSIG
7:00 pm
V
77 °F 6¼ mi+ - 310° 310° 12 kt METAR LFBO 271700Z AUTO 31012KT CAVOK 25/13 Q1022 NOSIG
6:30 pm
V
77 °F 6¼ mi+ - 290° 290° 10 kt METAR LFBO 271630Z AUTO 29010KT 260V330 CAVOK 25/13 Q1022 NOSIG
6:00 pm
V
77 °F 6¼ mi+ - 310° 310° 10 kt METAR LFBO 271600Z AUTO 31010KT 260V330 CAVOK 25/12 Q1022 NOSIG
5:30 pm
V
75 °F 6¼ mi+ - 300° 300° 10 kt METAR LFBO 271530Z AUTO 30010KT CAVOK 24/12 Q1022 NOSIG
5:00 pm
V
75 °F 6¼ mi+ - 310° 310° 10 kt METAR LFBO 271500Z AUTO 31010KT 280V340 CAVOK 24/12 Q1022 NOSIG
4:30 pm
V
75 °F 6¼ mi+ - 320° 320° 10 kt METAR LFBO 271430Z AUTO 32010KT 270V360 CAVOK 24/12 Q1023 NOSIG
4:00 pm
V
75 °F 6¼ mi+ 4,800 ft 320° 320° 8 kt METAR LFBO 271400Z AUTO 32008KT 280V350 9999 BKN048 BKN054 24/13 Q1023 NOSIG
3:30 pm
V
75 °F 6¼ mi+ 4,900 ft 330° 330° 8 kt METAR LFBO 271330Z AUTO 33008KT 270V020 9999 BKN049 24/12 Q1023 NOSIG
3:00 pm
V
77 °F 6¼ mi+ 4,700 ft 330° 330° 10 kt METAR LFBO 271300Z AUTO 33010KT 250V010 9999 BKN047 25/12 Q1023 NOSIG
2:30 pm
V
73 °F 6¼ mi+ 4,500 ft 310° 310° 10 kt METAR LFBO 271230Z AUTO 31010KT 270V350 9999 BKN045 BKN052 23/12 Q1024 NOSIG
2:00 pm
V
75 °F 6¼ mi+ 4,400 ft 310° 310° 12 kt METAR LFBO 271200Z AUTO 31012KT 270V340 9999 BKN044 BKN050 24/12 Q1024 NOSIG
1:30 pm
V
73 °F 6¼ mi+ 4,300 ft 320° 320° 8 kt METAR LFBO 271130Z AUTO 32008KT 280V350 9999 BKN043 BKN050 23/12 Q1025 NOSIG
1:00 pm
V
72 °F 6¼ mi+ 4,100 ft 300° 300° 12 kt METAR LFBO 271100Z AUTO 30012KT 270V330 9999 BKN041 BKN047 22/12 Q1025 NOSIG
12:30 pm
V
70 °F 6¼ mi+ 3,600 ft 310° 310° 12 kt METAR LFBO 271030Z AUTO 31012KT 290V350 9999 BKN036 BKN045 21/12 Q1025 NOSIG
12:00 pm
V
70 °F 6¼ mi+ 3,700 ft 280° 280° 10 kt METAR LFBO 271000Z AUTO 28010KT 240V310 9999 SCT031 BKN037 BKN044 21/12 Q1025 NOSIG
11:30 am
V
70 °F 6¼ mi+ 4,200 ft 280° 280° 11 kt METAR LFBO 270930Z AUTO 28011KT 250V310 9999 SCT032 BKN042 21/13 Q1025 NOSIG
11:00 am
M
68 °F 6¼ mi+ 2,900 ft 300° 300° 10 kt METAR LFBO 270900Z AUTO 30010KT 260V330 9999 BKN029 BKN040 BKN049 20/12 Q1025 NOSIG
10:30 am
V
66 °F 6¼ mi+ - 290° 290° 9 kt METAR LFBO 270830Z AUTO 29009KT 250V310 CAVOK 19/13 Q1025 NOSIG
10:00 am
V
66 °F 6¼ mi+ - 310° 310° 8 kt METAR LFBO 270800Z AUTO 31008KT 270V330 CAVOK 19/13 Q1026 NOSIG
9:30 am
V
64 °F 6¼ mi+ - 310° 310° 7 kt METAR LFBO 270730Z AUTO 31007KT CAVOK 18/13 Q1026 NOSIG
9:00 am
V
63 °F 6¼ mi+ - 300° 300° 9 kt METAR LFBO 270700Z AUTO 30009KT 260V320 CAVOK 17/12 Q1025 NOSIG
8:30 am
V
63 °F 6¼ mi+ 4,900 ft 300° 300° 8 kt METAR LFBO 270630Z AUTO 30008KT 9999 SCT043 OVC049 17/12 Q1025 NOSIG
8:00 am
V
63 °F 6¼ mi+ 4,200 ft 290° 290° 8 kt METAR LFBO 270600Z AUTO 29008KT 9999 BKN042 OVC049 17/13 Q1025 NOSIG
7:30 am
V
59 °F 6¼ mi+ - 270° 270° 7 kt METAR LFBO 270530Z AUTO 27007KT 9999 FEW039 SCT050 15/12 Q1025 NOSIG
7:00 am
V
59 °F 6¼ mi+ - 280° 280° 7 kt METAR LFBO 270500Z AUTO 28007KT 9999 FEW037 15/12 Q1025 NOSIG
6:30 am
V
59 °F 6¼ mi+ 5,200 ft 290° 290° 7 kt METAR LFBO 270430Z AUTO 29007KT 9999 FEW033 BKN052 15/12 Q1025 NOSIG
6:00 am
V
59 °F 6¼ mi+ 3,200 ft 280° 280° 5 kt METAR LFBO 270400Z AUTO 28005KT 9999 BKN032 BKN038 BKN045 15/12 Q1025 NOSIG
5:30 am
V
59 °F 6¼ mi+ 4,700 ft 300° 300° 6 kt METAR LFBO 270330Z AUTO 30006KT 9999 SCT034 BKN047 15/12 Q1025 NOSIG
5:00 am
V
59 °F 6¼ mi+ 4,800 ft 300° 300° 6 kt METAR LFBO 270300Z AUTO 30006KT 9999 OVC048 15/12 Q1026 NOSIG
4:30 am
V
57 °F 6¼ mi+ 4,900 ft 310° 310° 5 kt METAR LFBO 270230Z AUTO 31005KT 9999 OVC049 14/12 Q1026 NOSIG
4:00 am
V
57 °F 6¼ mi+ 4,900 ft 280° 280° 7 kt METAR LFBO 270200Z AUTO 28007KT 9999 OVC049 14/12 Q1026 NOSIG
3:30 am
V
57 °F 6¼ mi+ - 270° 270° 7 kt METAR LFBO 270130Z AUTO 27007KT 9999 SCT048 14/12 Q1026 NOSIG
3:00 am
V
57 °F 6¼ mi+ - 270° 270° 7 kt METAR LFBO 270100Z AUTO 27007KT CAVOK 14/12 Q1026 NOSIG
2:30 am
V
57 °F 6¼ mi+ - 280° 280° 5 kt METAR LFBO 270030Z AUTO 28005KT CAVOK 14/11 Q1026 NOSIG
2:00 am
V
57 °F 6¼ mi+ - 280° 280° 6 kt METAR LFBO 270000Z AUTO 28006KT CAVOK 14/12 Q1026 NOSIG
1:30 am
V
57 °F 6¼ mi+ - 300° 300° 6 kt METAR LFBO 262330Z AUTO 30006KT CAVOK 14/11 Q1027 NOSIG
1:00 am
V
61 °F 6¼ mi+ - 320° 320° 7 kt METAR LFBO 262300Z AUTO 32007KT CAVOK 16/12 Q1027 NOSIG
12:30 am
V
61 °F 6¼ mi+ - 320° 320° 7 kt METAR LFBO 262230Z AUTO 32007KT CAVOK 16/12 Q1027 NOSIG
12:00 am
V
63 °F 6¼ mi+ - 320° 320° 5 kt METAR LFBO 262200Z AUTO 32005KT CAVOK 17/12 Q1027 NOSIG

May 26, 2022

Time Code Weather Temp. Visibility Ceiling Wind METAR/SPECI
11:30 pm
V
63 °F 6¼ mi+ - 310° 310° 6 kt METAR LFBO 262130Z AUTO 31006KT CAVOK 17/12 Q1027 NOSIG
11:00 pm
V
63 °F 6¼ mi+ - 310° 310° 6 kt METAR LFBO 262100Z AUTO 31006KT CAVOK 17/12 Q1027 NOSIG
10:30 pm
V
63 °F 6¼ mi+ - 290° 290° 6 kt METAR LFBO 262030Z AUTO 29006KT CAVOK 17/12 Q1027 NOSIG
10:00 pm
V
64 °F 6¼ mi+ - 310° 310° 6 kt METAR LFBO 262000Z AUTO 31006KT CAVOK 18/12 Q1026 NOSIG
9:30 pm
V
64 °F 6¼ mi+ - 310° 310° 7 kt METAR LFBO 261930Z AUTO 31007KT CAVOK 18/12 Q1026 NOSIG
9:00 pm
V
64 °F 6¼ mi+ - 310° 310° 9 kt METAR LFBO 261900Z AUTO 31009KT CAVOK 18/12 Q1026 NOSIG
8:30 pm
V
66 °F 6¼ mi+ - 320° 320° 9 kt METAR LFBO 261830Z AUTO 32009KT CAVOK 19/12 Q1026 NOSIG
8:00 pm
V
66 °F 6¼ mi+ - 320° 320° 10 kt METAR LFBO 261800Z AUTO 32010KT CAVOK 19/12 Q1026 NOSIG
7:30 pm
V
66 °F 6¼ mi+ 5,400 ft 330° 330° 11 kt METAR LFBO 261730Z AUTO 33011KT 9999 FEW033 OVC054 19/12 Q1026 NOSIG
7:00 pm
V
66 °F 6¼ mi+ 5,600 ft 340° 340° 9 kt METAR LFBO 261700Z AUTO 34009KT 9999 FEW033 OVC056 19/12 Q1026 BECMG 28010KT
6:30 pm
V
66 °F 6¼ mi+ 3,500 ft 300° 300° 6 kt METAR LFBO 261630Z AUTO 30006KT 9999 BKN035 OVC050 19/12 Q1026 NOSIG
6:00 pm
V
66 °F 6¼ mi+ 3,300 ft 310° 310° 7 kt METAR LFBO 261600Z AUTO 31007KT 270V330 9999 BKN033 BKN046 OVC052 19/12 Q1026 NOSIG
5:30 pm
V
66 °F 6¼ mi+ 3,200 ft 300° 300° 5 kt METAR LFBO 261530Z AUTO 30005KT 9999 BKN032 BKN040 OVC050 19/12 Q1026 NOSIG
5:00 pm
V
66 °F 6¼ mi+ 4,800 ft 330° 330° 7 kt METAR LFBO 261500Z AUTO 33007KT 9999 SCT033 OVC048 19/12 Q1026 NOSIG
4:30 pm
V
66 °F 6¼ mi+ 5,000 ft 300° 300° 9 kt METAR LFBO 261430Z AUTO 30009KT 270V330 9999 SCT032 SCT040 OVC050 19/12 Q1026 NOSIG
4:00 pm
V
64 °F 6¼ mi+ 3,100 ft 300° 300° 10 kt METAR LFBO 261400Z AUTO 30010KT 9999 BKN031 OVC041 18/11 Q1027 NOSIG
3:30 pm
V
64 °F 6¼ mi+ 3,200 ft 300° 300° 10 kt METAR LFBO 261330Z AUTO 30010KT 9999 BKN032 OVC042 18/11 Q1027 NOSIG
3:00 pm
V
64 °F 6¼ mi+ 3,300 ft 290° 290° 8 kt METAR LFBO 261300Z AUTO 29008KT 250V320 9999 BKN033 BKN040 OVC048 18/11 Q1027 NOSIG
2:30 pm
V
64 °F 6¼ mi+ 4,600 ft 310° 310° 9 kt METAR LFBO 261230Z AUTO 31009KT 270V340 9999 FEW032 OVC046 18/11 Q1027 NOSIG
2:00 pm
V
64 °F 6¼ mi+ 4,400 ft 300° 300° 10 kt METAR LFBO 261200Z AUTO 30010KT 260V320 9999 FEW029 SCT034 OVC044 18/10 Q1027 NOSIG
1:30 pm
V
64 °F 6¼ mi+ 3,300 ft 320° 320° 10 kt METAR LFBO 261130Z AUTO 32010KT 9999 SCT027 BKN033 BKN040 18/11 Q1028 NOSIG
1:00 pm
V
63 °F 6¼ mi+ 4,000 ft 320° 320° 10 kt METAR LFBO 261100Z AUTO 32010KT 9999 FEW023 BKN040 OVC048 17/11 Q1028 NOSIG
12:30 pm
M
63 °F 6¼ mi+ 2,700 ft 280° 280° 11 kt METAR LFBO 261030Z AUTO 28011KT 9999 SCT021 BKN027 BKN038 17/12 Q1028 NOSIG
12:00 pm
V
61 °F 6¼ mi+ 3,000 ft 270° 270° 8 kt METAR LFBO 261000Z AUTO 27008KT 9999 SCT022 BKN030 OVC043 16/12 Q1028 NOSIG
11:30 am
V
61 °F 6¼ mi+ 4,100 ft 310° 310° 8 kt METAR LFBO 260930Z AUTO 31008KT 9999 FEW021 OVC041 16/11 Q1028 NOSIG
11:00 am
V
61 °F 6¼ mi+ 4,200 ft 280° 280° 8 kt METAR LFBO 260900Z AUTO 28008KT 250V310 9999 FEW022 BKN042 OVC048 16/11 Q1028 NOSIG
10:30 am
V
61 °F 6¼ mi+ 4,400 ft 300° 300° 8 kt METAR LFBO 260830Z AUTO 30008KT 250V330 9999 FEW019 BKN044 OVC050 16/12 Q1028 NOSIG
10:00 am
V
63 °F 6¼ mi+ 4,900 ft 280° 280° 9 kt METAR LFBO 260800Z AUTO 28009KT 240V340 9999 SCT019 SCT033 BKN049 17/12 Q1028 NOSIG
9:30 am
V
61 °F 6¼ mi+ 4,500 ft 280° 280° 7 kt METAR LFBO 260730Z AUTO 28007KT 230V310 9999 FEW017 BKN045 16/11 Q1028 NOSIG
9:00 am
V
59 °F 6¼ mi+ 4,300 ft 280° 280° 8 kt METAR LFBO 260700Z AUTO 28008KT 9999 FEW031 BKN043 BKN072 15/11 Q1028 NOSIG
8:30 am
V
59 °F 6¼ mi+ 3,300 ft 290° 290° 9 kt METAR LFBO 260630Z AUTO 29009KT 9999 BKN033 BKN040 BKN074 15/11 Q1028 NOSIG
8:00 am
V
55 °F 6¼ mi+ 3,000 ft 280° 280° 9 kt METAR LFBO 260600Z AUTO 28009KT 9999 FEW022 BKN030 BKN035 13/10 Q1027 NOSIG
7:30 am
V
55 °F 6¼ mi+ 7,800 ft 270° 270° 10 kt METAR LFBO 260530Z AUTO 27010KT 9999 SCT028 BKN078 13/10 Q1027 NOSIG
7:00 am
V
54 °F 6¼ mi+ 8,000 ft 270° 270° 7 kt METAR LFBO 260500Z AUTO 27007KT 9999 FEW019 SCT047 BKN080 12/10 Q1027 TEMPO BKN014
6:30 am
V
54 °F 6¼ mi+ - 270° 270° 6 kt METAR LFBO 260430Z AUTO 27006KT 230V290 9999 FEW048 12/10 Q1027 TEMPO BKN014
6:00 am
V
54 °F 6¼ mi+ - 270° 270° 7 kt METAR LFBO 260400Z AUTO 27007KT CAVOK 12/10 Q1026 TEMPO BKN014
5:30 am
V
54 °F 6¼ mi+ - 280° 280° 4 kt METAR LFBO 260330Z AUTO 28004KT 240V310 CAVOK 12/10 Q1026 TEMPO BKN014
5:00 am
V
54 °F 6¼ mi+ - 260° 260° 7 kt METAR LFBO 260300Z AUTO 26007KT CAVOK 12/10 Q1026 TEMPO BKN014
4:30 am
V
55 °F 6¼ mi+ - 280° 280° 9 kt METAR LFBO 260230Z AUTO 28009KT CAVOK 13/10 Q1026 TEMPO BKN014
4:00 am
V
55 °F 6¼ mi+ - 280° 280° 9 kt METAR LFBO 260200Z AUTO 28009KT CAVOK 13/10 Q1026 NOSIG
3:30 am
V
55 °F 6¼ mi+ - 260° 260° 8 kt METAR LFBO 260130Z AUTO 26008KT CAVOK 13/10 Q1026 NOSIG
3:00 am
V
55 °F 6¼ mi+ - 270° 270° 8 kt METAR LFBO 260100Z AUTO 27008KT CAVOK 13/10 Q1026 NOSIG
2:30 am
V
55 °F 6¼ mi+ - 280° 280° 10 kt METAR LFBO 260030Z AUTO 28010KT CAVOK 13/10 Q1026 NOSIG
2:00 am
V
57 °F 6¼ mi+ - 280° 280° 10 kt METAR LFBO 260000Z AUTO 28010KT CAVOK 14/10 Q1026 NOSIG
1:30 am
V
57 °F 6¼ mi+ - 280° 280° 11 kt METAR LFBO 252330Z AUTO 28011KT CAVOK 14/11 Q1026 NOSIG
1:00 am
V
59 °F 6¼ mi+ - 280° 280° 11 kt METAR LFBO 252300Z AUTO 28011KT CAVOK 15/11 Q1026 NOSIG
12:30 am
V
59 °F 6¼ mi+ - 270° 270° 12 kt METAR LFBO 252230Z AUTO 27012KT CAVOK 15/11 Q1026 NOSIG
12:00 am
V
59 °F 6¼ mi+ - 270° 270° 12 kt METAR LFBO 252200Z AUTO 27012KT CAVOK 15/11 Q1026 NOSIG

May 25, 2022

Time Code Weather Temp. Visibility Ceiling Wind METAR/SPECI
11:30 pm
V
61 °F 6¼ mi+ - 270° 270° 13 kt METAR LFBO 252130Z AUTO 27013KT CAVOK 16/11 Q1026 NOSIG
11:00 pm
V
61 °F 6¼ mi+ - 270° 270° 12 kt METAR LFBO 252100Z AUTO 27012KT CAVOK 16/11 Q1026 NOSIG
10:30 pm
V
61 °F 6¼ mi+ - 270° 270° 12 kt METAR LFBO 252030Z AUTO 27012KT CAVOK 16/11 Q1025 NOSIG
10:00 pm
V
61 °F 6¼ mi+ - 280° 280° 11 kt METAR LFBO 252000Z AUTO 28011KT CAVOK 16/10 Q1025 NOSIG
9:30 pm
V
63 °F 6¼ mi+ - 270° 270° 10 kt METAR LFBO 251930Z AUTO 27010KT CAVOK 17/10 Q1024 NOSIG
9:00 pm
V
64 °F 6¼ mi+ - 280° 280° 10 kt METAR LFBO 251900Z AUTO 28010KT CAVOK 18/10 Q1024 NOSIG
8:30 pm
V
64 °F 6¼ mi+ - 280° 280° 13 kt METAR LFBO 251830Z AUTO 28013KT 230V300 CAVOK 18/10 Q1024 NOSIG
8:00 pm
V
66 °F 6¼ mi+ - 280° 280° 12 kt METAR LFBO 251800Z AUTO 28012KT CAVOK 19/10 Q1023 NOSIG
7:30 pm
V
66 °F 6¼ mi+ 7,800 ft 290° 290° 12 kt METAR LFBO 251730Z AUTO 29012KT 9999 FEW046 BKN078 19/10 Q1023 NOSIG
7:00 pm
V
64 °F 6¼ mi+ 5,600 ft 290° 290° 13 kt METAR LFBO 251700Z AUTO 29013KT 9999 SCT047 BKN056 OVC070 18/09 Q1023 NOSIG
6:30 pm
V
66 °F 6¼ mi+ 5,400 ft 290° 290° 12 kt METAR LFBO 251630Z AUTO 29012KT 9999 SCT047 BKN054 BKN080 19/09 Q1023 NOSIG
6:00 pm
V
68 °F 6¼ mi+ 8,200 ft 300° 300° 11 kt METAR LFBO 251600Z AUTO 30011KT 270V330 9999 FEW049 SCT072 BKN082 20/09 Q1022 NOSIG
5:30 pm
V
68 °F 6¼ mi+ - 310° 310° 15 kt METAR LFBO 251530Z AUTO 31015KT CAVOK 20/08 Q1022 NOSIG
5:00 pm
V
70 °F 6¼ mi+ - 310° 310° 14 kt METAR LFBO 251500Z AUTO 31014KT 9999 FEW048 SCT084 21/08 Q1022 NOSIG
Older data

Download our app

Easy access to all aviation weather on your mobile phone and tablet.
With many features not available on the website, like offline support and a personal airport list.

We and third parties follow your internet behavior on our website with cookies. If you continue, we assume you agree with our cookie policy. Learn more